Regional Weather Roundup
Issued by NWS Newport/Morehead, NC

Current Version | Previous Version | Graphics & Text | Print | Product List | Glossary On
Versions: 1 2 3 4 5 6 7 8 9 10 11 12 13 14 15 16 17 18 19 20 21 22 23 24 25 26 27 28 29 30 31 32 33 34 35 36 37 38 39 40 41 42 43 44 45 46 47 48 49 50
000 ASUS42 KMHX 251810 RWRMHX WEATHER ROUNDUP FOR EASTERN NORTH CAROLINA NATIONAL WEATHER SERVICE NEWPORT/MOREHEAD CITY NC 200 PM EDT SAT OCT 25 2014 NOTE: "FAIR" INDICATES FEW OR NO CLOUDS BELOW 12,000 FEET WITH NO SIGNIFICANT WEATHER AND/OR OBSTRUCTIONS TO VISIBILITY NCZ015>017-031-032-045>047-102-103-251900- NORTH COAST CITY SKY/WX TMP DP RH WIND PRES REMARKS EDENTON SUNNY 67 46 46 SW5 29.93F ELIZABETH CITY SUNNY 72 43 35 N5 29.91F KITTY HAWK CLEAR 67 49 52 N3 29.91F MANTEO SUNNY 65 48 53 N7 29.92F $$ NCZ045>047-081-094-103-104-251900- CENTRAL COAST CITY SKY/WX TMP DP RH WIND PRES REMARKS FRISCO SUNNY 66 55 67 NW6 29.93F SWANQUARTER N/A 70 N/A N/A SW7 29.88F $$ NCZ095-097-098-100-101-251900- SOUTHERN COAST CITY SKY/WX TMP DP RH WIND PRES REMARKS BEAUFORT SUNNY 71 46 40 N5 29.94F CEDAR ISLAND N/A 66 N/A N/A NW3 29.97F JACKSONVILLE SUNNY 72 46 39 VRB5 29.93F PINEY ISLAND CLEAR 71 43 36 VRB3 29.94F WILMINGTON SUNNY 73 43 33 CALM 29.94F $$ NCZ011>013-027>030-043-044-078>080-089-090>093-098-251900- COASTAL PLAIN CITY SKY/WX TMP DP RH WIND PRES REMARKS AHOSKIE SUNNY 67 41 38 CALM 29.93F CLINTON SUNNY 71 47 42 W6 29.95F ELIZABETHTOWN SUNNY 70 46 41 NW3 29.95F GOLDSBORO SUNNY 71 49 45 W6 29.92F GREENVILLE SUNNY 70 45 40 CALM 29.96F HAVELOCK SUNNY 71 46 40 CALM 29.94F KENANSVILLE N/A 70 43 37 CALM 29.95F KINSTON SUNNY 72 45 37 NW5 29.94F NEW BERN SUNNY 73 43 33 N3 29.94F RICHLANDS SUNNY 72 46 40 CALM 29.94F ROCKY MOUNT SUNNY 70 43 37 CALM 29.94F WASHINGTON SUNNY 69 45 41 CALM 29.93F WHITEVILLE SUNNY 72 42 33 W3 29.95F $$ AMZ130-135-150-152-154-156-158-170-250-252-270-ANZ085-086-088-633-658-670-251900- MARINE OBSERVATIONS STATION/POSITION TIME TEMP WIND PRES WAVE SWELL AIR SEA DIR/SP/G HT/PER HT/PER (UTC) (F) (DEG/KT/KT) (MB) (FT/S) (FT/S) CHESAPEAKE LIGHT 1700 62 340/ 8/ 8 1014.5 64 E VA BEACH 1800 63 66 320/ 10/ 12 1012.3 3/10 3/10 DUCK 1800 63 66 10/ 6/ 8 1012.3 2 E DUCK 1700 N/A 3/11 2/11 10 NE DUCK 1800 68 N/A 3/ 9 2/11 OREGON INLET 1800 67 63 320/ 4/ 7 1012.9 13E OREGON INLT 1800 69 N/A 3/11 2/11 HATTERAS CG 1800 64 66 320/ 5/ 6 1014.0 DIAMOND BUOY 1800 66 310/ 6/ 10 1013.9 3/ 9 3/ 9 17 S OCRACOKE 1700 VRB 6/ 6 1014.4 CAPE LOOKOUT 1700 68 290/ 2/ 4 1014.5 BEAUFORT LAB 1800 70 67 CALM / 5 1013.2 30 SE NEW RIVER 1800 66 74 350/ 6/ 8 1014.1 2/ 9 2/ 9 5 SE WRIGHTSVLE 1800 65 72 150/ 4/ 6 N/A 225 S CAPE HAT 1653 72 77 30/ 8/ 12 1012.8 4/ 9 3/ 9 41 SE CHARLESTON 1800 68 78 340/ 10/ 14 1015.0 3/10 2/10 $$

USA.gov is the U.S. government's official web portal to all federal, state and local government web resources and services.